Charleston, SC

1:05 AM EST on February 09, 2016 (GMT -0500)
Charleston Executive

Weather History for KJZI - May, 2013

Change the Weather History Date:

Tuesday, May 28, 2013

  Actual Average (KCHS) Record (KCHS)
Temperature  
Mean Temperature 72 °F 76 °F  
Max Temperature 80 °F 86 °F 97 °F (1964)
Min Temperature 64 °F 65 °F 45 °F (1961)
Degree Days  
Heating Degree Days 0 0  
Month to date heating degree days 8  
Since 1 July heating degree days 1971  
Cooling Degree Days 7 11  
Month to date cooling degree days 212  
Year to date cooling degree days 330  
Growing Degree Days 22 (Base 50)    
Moisture  
Dew Point 64 °F    
Average Humidity 70    
Maximum Humidity 94    
Minimum Humidity 54    
Precipitation  
Precipitation 0.00 in 0.12 in 1.35 in (1984)
Month to date precipitation 2.67  
Year to date precipitation 15.96  
Sea Level Pressure  
Sea Level Pressure 30.23 in    
Wind  
Wind Speed 5 mph (SE)    
Max Wind Speed 13 mph    
Max Gust Speed 18 mph    
Visibility 10 miles    
Events      
T = Trace of Precipitation, MM = Missing Value Source: NWS Daily Summary

Daily Weather History Graph

Daily Weather History Graph

Search for Another Location

Airport or City:

Trip Planner

Search our weather history database for the weather conditions in past years. The results will help you decide how hot, cold, wet, or windy it might be!

Date:

Astronomy

May. 28, 2013 Rise Set
Actual Time 6:14 AM EDT 8:20 PM EDT
Civil Twilight 5:46 AM EDT 8:48 PM EDT
Nautical Twilight 5:12 AM EDT 9:22 PM EDT
Astronomical Twilight 4:35 AM EDT 9:59 PM EDT
Moon 11:50 PM EDT (5/28) 9:55 AM EDT (5/28)
Length of Visible Light 15h 02m
Length of Day
14h 06m
Waning Gibbous, 83% of the Moon is Illuminated
May 28
Waning Gibbous
May 31
Last Quarter
Jun 8
New
Jun 16
First Quarter
Jun 23
Full

Hourly Weather History & Observations

Time (EDT) Temp. Heat Index Dew Point Humidity Pressure Visibility Wind Dir Wind Speed Gust Speed Precip Events Conditions
12:15 AM 73.4 °F - 64.4 °F 73% 30.23 in 10.0 mi SE 4.6 mph - 0.00 in   Clear
12:35 AM 73.4 °F - 64.4 °F 73% 30.23 in 10.0 mi SSE 4.6 mph - 0.00 in   Clear
12:55 AM 73.4 °F - 64.4 °F 73% 30.22 in 10.0 mi SE 5.8 mph - 0.00 in   Clear
1:15 AM 73.4 °F - 64.4 °F 73% 30.21 in 10.0 mi SSE 3.5 mph - 0.00 in   Clear
1:35 AM 73.4 °F - 66.2 °F 78% 30.20 in 10.0 mi SSE 4.6 mph - 0.00 in   Clear
1:55 AM 71.6 °F - 66.2 °F 83% 30.20 in 10.0 mi South 5.8 mph - 0.00 in   Clear
2:15 AM 71.6 °F - 66.2 °F 83% 30.19 in 10.0 mi South 3.5 mph - 0.00 in   Clear
2:35 AM 71.6 °F - 64.4 °F 78% 30.20 in 10.0 mi Calm Calm - 0.00 in   Clear
2:55 AM 68.0 °F - 64.4 °F 88% 30.20 in 10.0 mi Calm Calm - 0.00 in   Clear
3:15 AM 66.2 °F - 62.6 °F 88% 30.20 in 10.0 mi Calm Calm - 0.00 in   Clear
3:35 AM 66.2 °F - 62.6 °F 88% 30.20 in 10.0 mi Calm Calm - 0.00 in   Clear
3:55 AM 66.2 °F - 64.4 °F 94% 30.21 in 10.0 mi Calm Calm - 0.00 in   Clear
4:15 AM 66.2 °F - 62.6 °F 88% 30.20 in 10.0 mi Calm Calm - 0.00 in   Clear
4:35 AM 64.4 °F - 62.6 °F 94% 30.20 in 10.0 mi Calm Calm - 0.00 in   Clear
4:55 AM 64.4 °F - 62.6 °F 94% 30.20 in 10.0 mi Calm Calm - 0.00 in   Clear
5:15 AM 66.2 °F - 62.6 °F 88% 30.20 in 10.0 mi Calm Calm - 0.00 in   Clear
5:35 AM 64.4 °F - 62.6 °F 94% 30.20 in 10.0 mi Calm Calm - 0.00 in   Clear
5:55 AM 64.4 °F - 62.6 °F 94% 30.21 in 10.0 mi Calm Calm - 0.00 in   Partly Cloudy
6:15 AM 66.2 °F - 62.6 °F 88% 30.21 in 10.0 mi Calm Calm - 0.00 in   Mostly Cloudy
6:35 AM 66.2 °F - 62.6 °F 88% 30.22 in 10.0 mi Calm Calm - 0.00 in   Mostly Cloudy
6:55 AM 66.2 °F - 62.6 °F 88% 30.22 in 10.0 mi Calm Calm - 0.00 in   Partly Cloudy
7:15 AM 68.0 °F - 64.4 °F 88% 30.22 in 10.0 mi Calm Calm - 0.00 in   Scattered Clouds
7:35 AM 71.6 °F - 66.2 °F 83% 30.23 in 10.0 mi Calm Calm - 0.00 in   Mostly Cloudy
7:55 AM 75.2 °F - 68.0 °F 78% 30.23 in 10.0 mi Calm Calm - 0.00 in   Scattered Clouds
8:15 AM 75.2 °F - 68.0 °F 78% 30.23 in 10.0 mi Calm Calm - 0.00 in   Clear
8:35 AM 75.2 °F - 66.2 °F 73% 30.23 in 10.0 mi SE 3.5 mph - 0.00 in   Clear
8:55 AM 77.0 °F - 66.2 °F 69% 30.23 in 10.0 mi South 6.9 mph - 0.00 in   Clear
9:15 AM 78.8 °F - 64.4 °F 61% 30.24 in 10.0 mi SE 6.9 mph - 0.00 in   Partly Cloudy
9:35 AM 78.8 °F - 64.4 °F 61% 30.24 in 10.0 mi SE 6.9 mph - 0.00 in   Clear
9:55 AM 78.8 °F - 64.4 °F 61% 30.24 in 10.0 mi SE 8.1 mph - 0.00 in   Clear
10:15 AM 78.8 °F - 62.6 °F 57% 30.24 in 10.0 mi SE 9.2 mph - 0.00 in   Clear
10:35 AM 80.6 °F 81.8 °F 62.6 °F 54% 30.25 in 8.0 mi SE 6.9 mph - 0.00 in   Clear
10:55 AM 80.6 °F 81.8 °F 62.6 °F 54% 30.25 in 10.0 mi South 9.2 mph - 0.00 in   Clear
11:15 AM 80.6 °F 81.8 °F 62.6 °F 54% 30.26 in 10.0 mi SSE 9.2 mph - 0.00 in   Clear
11:35 AM 80.6 °F 81.8 °F 62.6 °F 54% 30.26 in 10.0 mi South 8.1 mph - 0.00 in   Clear
11:55 AM 80.6 °F 81.8 °F 62.6 °F 54% 30.27 in 10.0 mi SE 8.1 mph - 0.00 in   Clear
12:15 PM 80.6 °F 81.8 °F 62.6 °F 54% 30.27 in 10.0 mi SE 8.1 mph - 0.00 in   Clear
12:35 PM 80.6 °F 81.8 °F 62.6 °F 54% 30.27 in 10.0 mi SE 9.2 mph - 0.00 in   Clear
12:55 PM 80.6 °F 81.8 °F 62.6 °F 54% 30.27 in 10.0 mi SE 9.2 mph - 0.00 in   Clear
1:15 PM 80.6 °F 81.8 °F 62.6 °F 54% 30.26 in 10.0 mi ESE 8.1 mph - 0.00 in   Clear
1:35 PM 80.6 °F 81.8 °F 62.6 °F 54% 30.26 in 10.0 mi SE 6.9 mph - 0.00 in   Clear
1:55 PM 80.6 °F 81.8 °F 62.6 °F 54% 30.25 in 10.0 mi ESE 9.2 mph - 0.00 in   Clear
2:15 PM 80.6 °F 81.8 °F 62.6 °F 54% 30.25 in 10.0 mi SE 10.4 mph - 0.00 in   Partly Cloudy
2:35 PM 80.6 °F 81.8 °F 62.6 °F 54% 30.25 in 10.0 mi SE 8.1 mph 16.1 mph 0.00 in   Partly Cloudy
2:55 PM 80.6 °F 81.8 °F 62.6 °F 54% 30.25 in 10.0 mi SE 9.2 mph - 0.00 in   Clear
3:15 PM 80.6 °F 81.8 °F 62.6 °F 54% 30.24 in 10.0 mi SSE 10.4 mph 16.1 mph 0.00 in   Partly Cloudy
3:35 PM 80.6 °F 82.3 °F 64.4 °F 58% 30.23 in 10.0 mi SE 11.5 mph - 0.00 in   Scattered Clouds
3:55 PM 80.6 °F 81.8 °F 62.6 °F 54% 30.24 in 10.0 mi SSE 9.2 mph 16.1 mph 0.00 in   Scattered Clouds
4:15 PM 78.8 °F - 64.4 °F 61% 30.23 in 10.0 mi SE 11.5 mph 16.1 mph 0.00 in   Scattered Clouds
4:35 PM 78.8 °F - 64.4 °F 61% 30.23 in 10.0 mi SSE 10.4 mph - 0.00 in   Scattered Clouds
4:55 PM 80.6 °F 82.3 °F 64.4 °F 58% 30.22 in 10.0 mi ESE 12.7 mph 18.4 mph 0.00 in   Partly Cloudy
5:15 PM 80.6 °F 82.3 °F 64.4 °F 58% 30.22 in 10.0 mi SE 10.4 mph - 0.00 in   Partly Cloudy
5:35 PM 78.8 °F - 62.6 °F 57% 30.22 in 10.0 mi SSE 8.1 mph - 0.00 in   Partly Cloudy
5:55 PM 78.8 °F - 62.6 °F 57% 30.22 in 10.0 mi SE 11.5 mph - 0.00 in   Clear
6:15 PM 78.8 °F - 60.8 °F 54% 30.21 in 10.0 mi ESE 9.2 mph - 0.00 in   Clear
6:35 PM 78.8 °F - 62.6 °F 57% 30.21 in 10.0 mi SE 6.9 mph - 0.00 in   Clear
6:55 PM 77.0 °F - 60.8 °F 57% 30.21 in 10.0 mi SE 8.1 mph - 0.00 in   Clear
7:15 PM 77.0 °F - 62.6 °F 61% 30.21 in 10.0 mi ESE 6.9 mph - 0.00 in   Clear
7:35 PM 75.2 °F - 62.6 °F 65% 30.21 in 10.0 mi ESE 6.9 mph - 0.00 in   Clear
7:55 PM 75.2 °F - 62.6 °F 65% 30.21 in 10.0 mi SE 5.8 mph - 0.00 in   Clear
8:15 PM 73.4 °F - 64.4 °F 73% 30.21 in 10.0 mi SE 5.8 mph - 0.00 in   Clear
8:35 PM 73.4 °F - 64.4 °F 73% 30.21 in 10.0 mi SE 5.8 mph - 0.00 in   Clear
8:55 PM 73.4 °F - 64.4 °F 73% 30.21 in 10.0 mi SE 4.6 mph - 0.00 in   Clear
9:15 PM 73.4 °F - 64.4 °F 73% 30.21 in 10.0 mi SE 4.6 mph - 0.00 in   Clear
9:35 PM 71.6 °F - 64.4 °F 78% 30.22 in 10.0 mi Calm Calm - 0.00 in   Clear
9:55 PM 73.4 °F - 66.2 °F 78% 30.23 in 10.0 mi SE 4.6 mph - 0.00 in   Clear
10:15 PM 73.4 °F - 64.4 °F 73% 30.23 in 10.0 mi Calm Calm - 0.00 in   Clear
10:35 PM 71.6 °F - 64.4 °F 78% 30.23 in 10.0 mi SE 4.6 mph - 0.00 in   Clear
10:55 PM 71.6 °F - 64.4 °F 78% 30.23 in 10.0 mi SE 4.6 mph - 0.00 in   Clear
11:15 PM 73.4 °F - 66.2 °F 78% 30.23 in 10.0 mi SE 5.8 mph - 0.00 in   Clear
11:35 PM 73.4 °F - 66.2 °F 78% 30.23 in 10.0 mi SE 5.8 mph - 0.00 in   Clear
11:55 PM 73.4 °F - 66.2 °F 78% 30.23 in 10.0 mi SE 5.8 mph - 0.00 in   Clear